Location: Hopewell Observatory
(38.8698°N, 77.6988°W)
Time: 18:35:35
(UTC-04:00)

Amateur Radio Satellites - All Passes

Search period start: 27 April 2017 18:05
Search period end: 28 April 2017 18:05
Location: Hopewell Observatory, 38.8698°N, 77.6988°W

Satellite Date Start Highest point End Downlink Frequencies (MHz)
Time Altitude Azimuth
JUGNU 27 Apr 18:07:12 18:08:16 10° 174° (S) 18:09:22 437.505
NUDT-PHONESAT 27 Apr 18:09:40 18:12:52 29° 72° (ENE) 18:16:05 437.300
STARS 27 Apr 18:15:23 18:19:42 61° 101° (E) 18:24:00 437.465
YUBILEINY 27 Apr 18:15:33 18:20:35 17° 282° (WNW) 18:25:38 435.215
CUBESAT XI-V 27 Apr 18:34:45 18:39:05 37° 289° (WNW) 18:43:23 437.345
CUTE 1.7 + AOD 2 27 Apr 18:41:25 18:43:16 13° 65° (ENE) 18:45:07 437.475
XW-2D 27 Apr 18:51:00 18:54:39 55° 260° (W) 18:58:21 145.860 - 145.880
HO-68 27 Apr 18:52:54 18:59:13 36° 64° (ENE) 19:05:35 435.675
XW-2B 27 Apr 18:58:02 19:01:38 46° 261° (W) 19:05:16 145.730 - 145.750
SEEDS 27 Apr 18:59:25 19:01:18 13° 65° (ENE) 19:03:13 437.485
KAITUO 1B 27 Apr 19:05:12 19:08:45 46° 260° (W) 19:12:20 145.475/437.950
XW-2C 27 Apr 19:10:18 19:13:39 31° 263° (W) 19:17:02 145.795 - 145.815
LilacSat-2 27 Apr 19:10:34 19:13:53 30° 263° (W) 19:17:14 437.200
DOVE 4 27 Apr 19:16:12 19:20:37 27° 265° (W) 19:25:02 437.250
KKS-1 27 Apr 19:25:26 19:26:41 11° 298° (WNW) 19:27:56 437.445
O/OREOS (USA 219) 27 Apr 19:33:34 19:36:50 19° 57° (ENE) 19:40:03 437.305
NO-84 27 Apr 19:33:49 19:37:38 74° 134° (SE) 19:41:06 435.350 FM
CUTE-I 27 Apr 19:34:02 19:38:43 31° 263° (W) 19:43:26 437.470
STRAND 1 27 Apr 19:34:48 19:38:19 18° 93° (E) 19:41:49 437.568
XW-2F 27 Apr 19:36:09 19:38:32 16° 267° (W) 19:40:57 145.980 - 146.000
XW-2A 27 Apr 19:36:28 19:39:44 53° 75° (ENE) 19:43:01 145.665 - 145.685
UWE-3 27 Apr 19:41:23 19:44:02 16° 67° (ENE) 19:46:40 435.000/436.395/437.385
NUDT-PHONESAT 27 Apr 19:44:35 19:46:49 15° 267° (W) 19:49:03 437.300
STARS 27 Apr 19:53:49 19:55:31 12° 297° (WNW) 19:57:11 437.465
JUGNU 27 Apr 19:54:57 19:56:21 11° 185° (S) 19:57:44 437.505
CUBEBUG 2 27 Apr 19:55:14 19:59:18 39° 73° (ENE) 20:03:16 437.445
AAUSAT CUBESAT 2 27 Apr 20:02:08 20:05:47 30° 71° (ENE) 20:09:26 437.432
CUTE 1.7 + AOD 2 27 Apr 20:14:30 20:18:36 53° 260° (W) 20:22:46 437.475
SEEDS 27 Apr 20:32:27 20:36:31 52° 260° (W) 20:40:39 437.485
ZACube-1 27 Apr 20:33:03 20:36:51 34° 72° (ENE) 20:40:36 437.345
M-CUBED/EXP-1 PRIME 27 Apr 20:33:38 20:37:37 46° 104° (ESE) 20:41:16 437.505
AO-73 27 Apr 20:39:13 20:43:02 36° 72° (ENE) 20:46:50 145.935
HO-68 27 Apr 20:40:04 20:46:46 43° 261° (W) 20:53:31 435.675
AO-85 27 Apr 20:46:31 20:49:17 18° 48° (NE) 20:52:06 145.980
Oscar 11 27 Apr 20:53:06 20:57:10 44° 73° (ENE) 21:01:17 .
O/OREOS (USA 219) 27 Apr 21:12:06 21:16:25 42° 255° (WSW) 21:20:41 437.305
STRAND 1 27 Apr 21:12:49 21:17:43 48° 289° (WNW) 21:22:36 437.568
NO-84 27 Apr 21:13:15 21:15:27 15° 329° (NNW) 21:17:34 435.350 FM
UWE-3 27 Apr 21:16:11 21:20:12 39° 262° (W) 21:24:09 435.000/436.395/437.385
SRMSAT 27 Apr 21:19:14 21:21:08 11° 178° (S) 21:23:02 437.500
CUBEBUG 2 27 Apr 21:33:17 21:36:02 16° 267° (W) 21:38:45 437.445
AAUSAT CUBESAT 2 27 Apr 21:38:13 21:41:15 20° 266° (W) 21:44:18 437.432
PRISM 27 Apr 21:53:35 21:55:39 13° 92° (E) 21:57:43 437.425
M-CUBED/EXP-1 PRIME 27 Apr 22:09:21 22:11:34 14° 302° (WNW) 22:13:41 437.505
ZACube-1 27 Apr 22:10:24 22:13:13 17° 267° (W) 22:16:01 437.345
DELFI C3 27 Apr 22:10:29 22:14:27 81° 256° (WSW) 22:18:29 145.870
BEESAT 3 27 Apr 22:15:35 22:19:01 26° 51° (NE) 22:22:26 437.485
AO-73 27 Apr 22:16:44 22:19:24 16° 267° (W) 22:22:02 145.935
BEESAT 2 27 Apr 22:18:13 22:20:07 13° 43° (NE) 22:22:01 435.950
TIGRISAT 27 Apr 22:25:17 22:28:22 19° 94° (E) 22:31:27 435.000
AO-85 27 Apr 22:26:01 22:29:49 42° 244° (WSW) 22:33:47 145.980
ESTCUBE 1 27 Apr 22:30:21 22:31:37 11° 62° (ENE) 22:32:53 437.505/2401.250
Oscar 11 27 Apr 22:31:09 22:33:31 14° 268° (W) 22:35:53 .
OBJECT BX 27 Apr 22:34:30 22:38:00 49° 260° (W) 22:41:34 145.990 - 145.960
UNISAT 6 27 Apr 22:46:10 22:50:08 35° 98° (E) 22:54:08 437.425
FO-29 27 Apr 23:05:10 23:10:10 43° 99° (E) 23:15:30 435.910
PRISM 27 Apr 23:27:12 23:31:09 44° 288° (WNW) 23:35:04 437.425
SPROUT 27 Apr 23:31:09 23:32:50 12° 64° (ENE) 23:34:30 437.525
LO-87 27 Apr 23:34:05 23:37:43 75° 258° (WSW) 23:41:22 145.935 - 145.965
AIST 2D 27 Apr 23:44:43 23:47:11 18° 94° (E) 23:49:40 435.315
BEESAT 3 27 Apr 23:53:11 23:56:32 25° 247° (WSW) 23:59:50 437.485
BEESAT 2 27 Apr 23:54:18 23:58:21 71° 241° (WSW) 00:02:20 435.950
TIGRISAT 28 Apr 00:01:15 00:05:07 34° 289° (WNW) 00:09:01 435.000
50 SAT 28 Apr 00:02:14 00:03:50 13° 67° (ENE) 00:05:27 437.505
ESTCUBE 1 28 Apr 00:03:18 00:07:47 72° 258° (WSW) 00:12:19 437.505/2401.250
VELOX 1 28 Apr 00:11:19 00:15:25 37° 71° (ENE) 00:19:33 145.980
POLYITAN 1 28 Apr 00:19:45 00:23:19 26° 96° (E) 00:26:52 437.675
UNISAT 6 28 Apr 00:23:35 00:26:35 19° 293° (WNW) 00:29:38 437.425
UKube-1 28 Apr 00:25:26 00:27:44 14° 64° (ENE) 00:30:01 .
QB50P2 28 Apr 00:26:14 00:30:05 34° 98° (E) 00:33:54 145.880/145.840
NANOSAT C BR1 28 Apr 00:46:41 00:50:46 49° 100° (E) 00:54:49 145.865
FO-29 28 Apr 00:51:06 00:55:03 22° 294° (WNW) 00:59:09 435.910
DX 1 28 Apr 00:58:48 01:03:00 47° 73° (ENE) 01:07:13 434.975-435.025
SPROUT 28 Apr 01:04:00 01:08:13 58° 260° (W) 01:12:26 437.525
EO-79 28 Apr 01:15:17 01:19:28 67° 284° (WNW) 01:23:37 145.935-145.965
DUCHIFAT 1 28 Apr 01:15:42 01:19:53 82° 284° (WNW) 01:24:03 145.980
AIST 2D 28 Apr 01:17:30 01:20:21 23° 289° (WNW) 01:23:11 435.315
50 SAT 28 Apr 01:33:14 01:36:26 34° 262° (W) 01:39:39 437.505
Oscar 19 28 Apr 01:45:50 01:49:51 22° 94° (E) 01:53:49 437.125/150
VELOX 1 28 Apr 01:48:51 01:51:58 19° 266° (W) 01:55:06 145.980
POLYITAN 1 28 Apr 01:55:38 01:58:59 24° 291° (WNW) 02:02:20 437.675
Gurwin Techsat 1B 28 Apr 01:58:35 02:01:58 17° 92° (E) 02:05:20 435.225
UKube-1 28 Apr 01:59:05 02:03:18 50° 260° (W) 02:07:32 .
QB50P2 28 Apr 02:02:40 02:05:36 19° 293° (WNW) 02:08:32 145.880/145.840
NO-84 28 Apr 02:09:38 02:12:00 22° 35° (NE) 02:14:18 435.350 FM
BUGSAT 1 28 Apr 02:12:16 02:16:12 57° 285° (WNW) 02:20:08 437.445
PCSat 28 Apr 02:14:35 02:19:51 56° 113° (ESE) 02:25:10 145.827
NANOSAT C BR1 28 Apr 02:24:00 02:26:01 13° 295° (WNW) 02:28:03 145.865
ITUPSAT 1 28 Apr 02:28:04 02:31:53 25° 67° (ENE) 02:35:43 437.325
DX 1 28 Apr 02:37:02 02:39:24 14° 267° (W) 02:41:48 434.975-435.025
MOZHAYETS 4 28 Apr 03:05:03 03:08:51 27° 69° (ENE) 03:12:40
AO-7 28 Apr 03:06:29 03:10:16 14° 89° (E) 03:14:01 .
ITAMSAT 1 28 Apr 03:16:09 03:18:19 12° 91° (E) 03:20:27 435.822/435.867
YUBILEINY 28 Apr 03:22:16 03:28:05 20° 79° (E) 03:33:54 435.215
BEESAT 28 Apr 03:23:02 03:27:47 87° 257° (WSW) 03:32:34 436.000
Oscar 19 28 Apr 03:24:24 03:29:17 42° 290° (WNW) 03:34:09 437.125/150
Gurwin Techsat 1B 28 Apr 03:37:02 03:42:15 56° 287° (WNW) 03:47:24 435.225
NO-84 28 Apr 03:47:06 03:49:27 23° 232° (SW) 03:51:46 435.350 FM
PCSat 28 Apr 03:59:25 04:03:35 22° 311° (NW) 04:07:47 145.827
CUBESAT XI-V 28 Apr 04:00:32 04:03:43 18° 66° (ENE) 04:06:55 437.345
ITUPSAT 1 28 Apr 04:05:18 04:09:32 32° 262° (W) 04:13:49 437.325
MOZHAYETS 4 28 Apr 04:42:05 04:45:55 27° 264° (W) 04:49:47
KKS-1 28 Apr 04:42:45 04:47:07 54° 73° (ENE) 04:51:29 437.445
ITAMSAT 1 28 Apr 04:53:05 04:58:15 71° 286° (WNW) 05:03:23 435.822/435.867
AO-7 28 Apr 04:55:48 05:04:10 79° 107° (ESE) 05:12:30 .
STARS 28 Apr 05:10:26 05:14:39 46° 72° (ENE) 05:18:52 437.465
YUBILEINY 28 Apr 05:15:08 05:23:49 77° 278° (W) 05:32:34 435.215
SO-50 28 Apr 05:21:02 05:23:26 14° 109° (ESE) 05:25:51 436.795
CUBESAT XI-V 28 Apr 05:36:20 05:40:43 43° 261° (W) 05:45:12 437.345
RS-15 28 Apr 06:05:49 06:15:10 28° 101° (ESE) 06:24:42 29.354- 29.394
CUTE-I 28 Apr 06:13:51 06:16:15 13° 90° (E) 06:18:38 437.470
KKS-1 28 Apr 06:21:54 06:23:58 13° 268° (W) 06:26:02 437.445
XW-2D 28 Apr 06:25:38 06:28:01 16° 93° (E) 06:30:25 145.860 - 145.880
XW-2B 28 Apr 06:32:19 06:35:03 18° 94° (E) 06:37:46 145.730 - 145.750
KAITUO 1B 28 Apr 06:38:16 06:40:49 17° 94° (E) 06:43:23 145.475/437.950
XW-2C 28 Apr 06:43:53 06:47:08 26° 96° (E) 06:50:22 145.795 - 145.815
LilacSat-2 28 Apr 06:44:38 06:47:59 28° 96° (E) 06:51:21 437.200
STARS 28 Apr 06:48:41 06:51:12 15° 267° (W) 06:53:43 437.465
STRAND 1 28 Apr 06:49:23 06:53:26 24° 66° (ENE) 06:57:29 437.568
AO-7 28 Apr 06:49:54 06:56:02 24° 305° (NW) 07:02:12 .
SO-50 28 Apr 06:58:50 07:03:24 59° 304° (NW) 07:07:56 436.795
ISS 28 Apr 07:02:54 07:04:18 12° 128° (SE) 07:05:43 437.550
XW-2F 28 Apr 07:07:48 07:11:32 51° 100° (E) 07:15:15 145.980 - 146.000
NUDT-PHONESAT 28 Apr 07:14:28 07:18:06 49° 99° (E) 07:21:44 437.300
DOVE 4 28 Apr 07:15:57 07:20:31 77° 285° (WNW) 07:24:49 437.250
M-CUBED/EXP-1 PRIME 28 Apr 07:16:58 07:21:26 52° 68° (ENE) 07:25:59 437.505
YUBILEINY 28 Apr 07:17:51 07:22:10 14° 299° (WNW) 07:26:32 435.215
CUTE-I 28 Apr 07:51:29 07:56:47 71° 286° (WNW) 08:02:03 437.470
XW-2D 28 Apr 07:58:52 08:02:16 31° 288° (WNW) 08:05:40 145.860 - 145.880
CUTE 1.7 + AOD 2 28 Apr 08:00:44 08:04:25 27° 96° (E) 08:08:06 437.475
Tancredo 1 28 Apr 08:03:25 08:06:30 78° 138° (SE) 08:09:36 437.200
XW-2B 28 Apr 08:05:59 08:09:14 27° 289° (WNW) 08:12:28 145.730 - 145.750
HO-68 28 Apr 08:08:40 08:15:24 41° 99° (E) 08:22:06 435.675
KAITUO 1B 28 Apr 08:11:35 08:14:51 28° 289° (WNW) 08:18:07 145.475/437.950
RS-15 28 Apr 08:14:13 08:26:18 80° 302° (WNW) 08:38:46 29.354- 29.394
SEEDS 28 Apr 08:17:37 08:21:15 27° 96° (E) 08:24:53 437.485
XW-2C 28 Apr 08:18:21 08:21:09 20° 291° (WNW) 08:23:56 145.795 - 145.815
LilacSat-2 28 Apr 08:19:22 08:22:04 19° 291° (WNW) 08:24:46 437.200
STRAND 1 28 Apr 08:27:40 08:32:23 38° 262° (W) 08:37:07 437.568
XW-2A 28 Apr 08:31:55 08:35:16 70° 101° (E) 08:38:37 145.665 - 145.685
ISS 28 Apr 08:37:11 08:40:25 62° 324° (NW) 08:43:39 437.550
XW-2F 28 Apr 08:44:16 08:45:12 11° 295° (WNW) 08:46:08 145.980 - 146.000
NUDT-PHONESAT 28 Apr 08:50:47 08:51:33 11° 295° (WNW) 08:52:19 437.300
M-CUBED/EXP-1 PRIME 28 Apr 08:53:13 08:56:05 16° 263° (W) 08:58:58 437.505
UWE-3 28 Apr 09:06:24 09:10:23 40° 98° (E) 09:14:25 435.000/436.395/437.385
FO-29 28 Apr 09:18:09 09:21:58 17° 64° (ENE) 09:25:33 435.910
AAUSAT CUBESAT 2 28 Apr 09:20:03 09:24:14 69° 100° (E) 09:28:24 437.432
CUBEBUG 2 28 Apr 09:23:03 09:27:13 74° 285° (WNW) 09:31:28 437.445
TIGRISAT 28 Apr 09:23:33 09:26:04 15° 66° (ENE) 09:28:34 435.000
CUTE 1.7 + AOD 2 28 Apr 09:36:41 09:40:07 24° 291° (WNW) 09:43:33 437.475
Tancredo 1 28 Apr 09:40:40 09:42:43 16° 337° (NNW) 09:44:46 437.200
UNISAT 6 28 Apr 09:43:58 09:47:39 27° 70° (ENE) 09:51:17 437.425
O/OREOS (USA 219) 28 Apr 09:44:20 09:48:04 25° 102° (ESE) 09:51:49 437.305
DELFI C3 28 Apr 09:50:16 09:52:20 14° 92° (E) 09:54:23 145.870
SEEDS 28 Apr 09:53:24 09:56:48 24° 291° (WNW) 10:00:12 437.485
HO-68 28 Apr 09:56:32 10:02:59 37° 296° (WNW) 10:09:26 435.675
ZACube-1 28 Apr 09:57:46 10:02:01 89° 291° (WNW) 10:06:21 437.345
AO-73 28 Apr 10:03:36 10:07:51 85° 283° (WNW) 10:12:11 145.935
OBJECT BX 28 Apr 10:05:38 10:07:40 14° 93° (E) 10:09:41 145.990 - 145.960
PRISM 28 Apr 10:14:28 10:18:37 78° 258° (WSW) 10:22:48 437.425
ISS 28 Apr 10:15:38 10:17:26 14° 342° (NNW) 10:19:14 437.550
Oscar 11 28 Apr 10:17:07 10:21:28 73° 283° (WNW) 10:25:47 .
RS-15 28 Apr 10:30:56 10:41:07 29° 329° (NNW) 10:51:27 29.354- 29.394
UWE-3 28 Apr 10:43:55 10:46:31 16° 293° (WNW) 10:49:08 435.000/436.395/437.385
TIGRISAT 28 Apr 10:58:11 11:02:23 45° 261° (W) 11:06:32 435.000
FO-29 28 Apr 11:00:19 11:06:38 66° 258° (WSW) 11:12:16 435.910
PCSat 28 Apr 11:03:47 11:08:45 35° 54° (NE) 11:13:41 145.827
POLYITAN 1 28 Apr 11:11:43 11:14:32 18° 67° (ENE) 11:17:22 437.675
QB50P2 28 Apr 11:17:53 11:21:11 22° 69° (ENE) 11:24:29 145.880/145.840
UNISAT 6 28 Apr 11:20:45 11:24:18 24° 264° (W) 11:27:50 437.425
O/OREOS (USA 219) 28 Apr 11:23:18 11:27:20 30° 299° (WNW) 11:31:23 437.305
DELFI C3 28 Apr 11:23:31 11:27:17 40° 287° (WNW) 11:31:01 145.870
NANOSAT C BR1 28 Apr 11:37:30 11:41:11 31° 71° (ENE) 11:44:54 145.865
OBJECT BX 28 Apr 11:38:09 11:41:26 32° 288° (WNW) 11:44:43 145.990 - 145.960
AIST 2D 28 Apr 11:49:41 11:53:09 84° 257° (WSW) 11:56:39 435.315
ESTCUBE 1 28 Apr 11:57:24 12:01:12 26° 95° (E) 12:04:59 437.505/2401.250
DUCHIFAT 1 28 Apr 12:05:47 12:09:54 59° 74° (ENE) 12:14:02 145.980
EO-79 28 Apr 12:05:55 12:10:07 75° 76° (ENE) 12:14:19 145.935-145.965
LO-87 28 Apr 12:35:43 12:39:09 47° 286° (WNW) 12:42:34 145.935 - 145.965
AO-85 28 Apr 12:38:47 12:43:07 80° 120° (ESE) 12:47:13 145.980
POLYITAN 1 28 Apr 12:46:09 12:50:02 36° 262° (W) 12:53:56 437.675
PCSat 28 Apr 12:47:17 12:52:03 32° 251° (WSW) 12:56:46 145.827
SPROUT 28 Apr 12:51:17 12:54:47 24° 96° (E) 12:58:15 437.525
RS-15 28 Apr 12:51:25 12:59:38 19° 5° (N) 13:07:45 29.354- 29.394
QB50P2 28 Apr 12:53:11 12:56:49 28° 264° (W) 13:00:28 145.880/145.840
Tancredo 1 28 Apr 12:55:18 12:56:44 13° 18° (NNE) 12:58:10 437.200
50 SAT 28 Apr 12:58:43 13:00:44 15° 94° (E) 13:02:44 437.505
BUGSAT 1 28 Apr 13:00:03 13:04:11 79° 76° (ENE) 13:08:18 437.445
Oscar 19 28 Apr 13:01:21 13:05:44 29° 67° (ENE) 13:10:09 437.125/150
NANOSAT C BR1 28 Apr 13:13:49 13:16:55 20° 266° (W) 13:20:02 145.865
Gurwin Techsat 1B 28 Apr 13:18:10 13:22:26 25° 66° (ENE) 13:26:42 435.225
ISS 28 Apr 13:30:24 13:32:40 17° 23° (NNE) 13:34:56 437.550
ESTCUBE 1 28 Apr 13:34:04 13:37:56 28° 291° (WNW) 13:41:47 437.505/2401.250
VELOX 1 28 Apr 13:38:22 13:42:49 90° 286° (WNW) 13:47:13 145.980
BEESAT 3 28 Apr 13:40:46 13:44:38 67° 119° (ESE) 13:48:37 437.485
BEESAT 2 28 Apr 13:44:43 13:47:59 25° 113° (ESE) 13:51:19 435.950
DUCHIFAT 1 28 Apr 13:45:29 13:45:55 10° 269° (W) 13:46:21 145.980
UKube-1 28 Apr 13:47:31 13:51:13 27° 97° (E) 13:54:53 .
SO-50 28 Apr 13:52:50 13:54:32 12° 40° (NE) 13:56:16 436.795
AO-7 28 Apr 14:03:57 14:09:40 21° 53° (NE) 14:15:22 .
AO-85 28 Apr 14:22:30 14:23:58 12° 317° (NW) 14:25:25 145.980
DX 1 28 Apr 14:23:57 14:28:19 76° 285° (WNW) 14:32:38 434.975-435.025
SPROUT 28 Apr 14:27:05 14:30:36 26° 291° (WNW) 14:34:06 437.525
Tancredo 1 28 Apr 14:30:07 14:33:11 58° 37° (NE) 14:36:13 437.200
50 SAT 28 Apr 14:30:42 14:33:41 27° 289° (WNW) 14:36:40 437.505
ITAMSAT 1 28 Apr 14:32:21 14:35:55 19° 63° (ENE) 14:39:28 435.822/435.867
Oscar 19 28 Apr 14:40:21 14:44:56 32° 263° (W) 14:49:33 437.125/150
Gurwin Techsat 1B 28 Apr 14:57:11 15:02:08 39° 262° (W) 15:07:07 435.225
RS-15 28 Apr 15:06:13 15:17:21 37° 39° (NE) 15:28:02 29.354- 29.394
ISS 28 Apr 15:06:14 15:09:30 78° 218° (SW) 15:12:44 437.550
BEESAT 3 28 Apr 15:20:49 15:22:40 13° 316° (NW) 15:24:33 437.485
BEESAT 2 28 Apr 15:22:17 15:25:39 26° 309° (NW) 15:29:06 435.950
UKube-1 28 Apr 15:23:38 15:27:07 24° 292° (WNW) 15:30:34 .
BEESAT 28 Apr 15:24:49 15:28:48 26° 96° (E) 15:32:43 436.000
YUBILEINY 28 Apr 15:26:54 15:35:23 51° 77° (ENE) 15:43:51 435.215
SO-50 28 Apr 15:31:11 15:35:43 84° 62° (ENE) 15:40:13 436.795
AO-7 28 Apr 15:53:05 16:01:23 87° 252° (WSW) 16:09:44 .
ITUPSAT 1 28 Apr 16:06:12 16:10:59 69° 102° (ESE) 16:15:45 437.325
Tancredo 1 28 Apr 16:07:26 16:08:42 12° 231° (SW) 16:09:58 437.200
ITAMSAT 1 28 Apr 16:09:54 16:14:57 52° 260° (W) 16:20:01 435.822/435.867
MOZHAYETS 4 28 Apr 16:37:13 16:41:50 75° 102° (ESE) 16:46:27
KKS-1 28 Apr 16:37:26 16:38:37 11° 91° (E) 16:39:47 437.445
DOVE 4 28 Apr 16:45:24 16:46:59 11° 61° (ENE) 16:48:33 437.250
BEESAT 28 Apr 17:02:21 17:06:32 31° 291° (WNW) 17:10:42 436.000
RS-15 28 Apr 17:18:51 17:31:01 76° 244° (WSW) 17:42:33 29.354- 29.394
YUBILEINY 28 Apr 17:24:16 17:31:47 34° 275° (W) 17:39:20 435.215
XW-2C 28 Apr 17:26:00 17:27:10 11° 65° (ENE) 17:28:20 145.795 - 145.815
LilacSat-2 28 Apr 17:26:59 17:28:34 12° 66° (ENE) 17:30:08 437.200
CUBESAT XI-V 28 Apr 17:33:44 17:38:20 50° 99° (E) 17:42:53 437.345
CUTE-I 28 Apr 17:33:50 17:37:44 21° 64° (ENE) 17:41:36 437.470
ITUPSAT 1 28 Apr 17:46:06 17:48:12 13° 298° (WNW) 17:50:19 437.325
XW-2F 28 Apr 17:48:08 17:50:53 20° 69° (ENE) 17:53:40 145.980 - 146.000
AO-7 28 Apr 17:50:31 17:55:08 16° 269° (W) 17:59:48 .
JUGNU 28 Apr 17:51:45 17:53:06 11° 175° (S) 17:54:27 437.505
NUDT-PHONESAT 28 Apr 17:53:20 17:55:55 19° 69° (ENE) 17:58:31 437.300
